Location: Unspecified
(43.9500°N, 64.7900°W)
Time: 22:51:37
(UTC-03:00)

Envisat - Visible Passes

Search period start: 17 June 2018 00:00
Search period end: 27 June 2018 00:00
Orbit: 764 x 766 km, 98.2° (Epoch: 17 June)

Date Brightness Start Highest point End Pass type
(mag) Time Alt. Az. Time Alt. Az. Time Alt. Az.
18 Jun 5.6 21:57:38 10° SW 22:00:32 15° W 22:03:25 10° NW visible
21 Jun 5.5 21:45:40 10° SW 21:49:15 19° W 21:52:50 10° NW visible
23 Jun 6.0 22:14:06 10° W 22:15:08 11° W 22:16:11 10° WNW visible
26 Jun 5.7 22:01:18 10° WSW 22:03:50 14° W 22:06:23 10° WNW visible
